Total_Precipitation_Accumulation
2.59 2.52 3.06 4.08 4.73 4.25 3.75 2.99 2.54 2.37 1.99 1.56 1.20 1.18 1.48 1.92 2.43 2.93 3.26 3.02 2.09 1.65 1.75 2.58 3.28 2.97 2.44 2.11 1.96 2.00 1.99 2.10 2.03 2.01 1.82 1.67 1.54 1.45 1.29 1.15 1.20 1.15 1.04 0.98 0.95 1.07 1.09 1.09 1.27
1.93 2.83 3.70 4.69 4.37 3.72 3.45 2.99 2.73 2.24 1.62 1.28 0.95 0.88 0.98 1.06 1.13 1.82 3.08 2.93 1.85 1.51 1.60 1.95 2.70 2.58 2.16 1.95 1.94 2.05 2.09 2.21 2.12 1.95 1.74 1.63 1.61 1.55 1.38 1.27 1.36 1.19 1.06 1.01 1.00 1.10 1.20 1.14 1.25
2.07 3.23 4.28 4.56 3.47 3.19 3.28 3.04 2.52 1.86 1.32 1.20 1.00 0.88 1.08 1.37 1.45 2.09 2.87 2.21 1.59 1.48 1.58 2.10 2.69 2.43 2.11 1.92 2.08 2.28 2.28 2.26 2.06 1.80 1.62 1.62 1.66 1.60 1.52 1.50 1.46 1.21 1.11 1.03 1.01 1.10 1.13 1.12 1.17
2.44 3.64 3.95 3.67 3.04 2.62 2.70 2.67 2.11 1.69 1.28 0.91 0.90 0.93 1.00 1.44 1.51 1.85 1.91 1.58 1.38 1.49 1.59 2.00 2.55 2.41 2.18 1.99 2.21 2.33 2.35 2.36 2.23 1.97 1.73 1.67 1.64 1.60 1.54 1.57 1.42 1.25 1.13 1.03 1.00 1.06 1.12 1.11 1.14
2.92 3.84 3.79 3.27 2.87 2.54 2.27 1.91 1.66 1.56 1.29 0.98 0.84 1.06 1.46 1.86 1.67 1.55 1.50 1.42 1.27 1.37 1.39 1.63 2.28 2.38 2.23 2.12 2.33 2.39 2.43 2.54 2.50 2.22 2.01 1.80 1.64 1.58 1.56 1.58 1.43 1.33 1.24 1.16 1.12 1.14 1.15 1.11 1.16
3.29 3.37 3.61 3.20 2.83 2.58 2.47 1.81 1.55 1.50 1.18 0.96 0.90 1.14 1.88 2.23 1.88 1.65 1.46 1.54 1.48 1.44 1.35 1.34 1.97 2.24 2.23 2.27 2.32 2.30 2.32 2.37 2.41 2.17 1.96 1.76 1.61 1.55 1.63 1.66 1.47 1.38 1.25 1.19 1.20 1.25 1.29 1.25 1.23
3.23 3.29 3.28 2.73 2.75 2.93 2.54 1.78 1.61 1.48 1.39 1.11 0.83 1.26 1.99 2.34 1.95 1.64 1.54 1.56 1.65 1.57 1.51 1.41 1.54 1.85 2.18 2.24 2.11 2.11 2.09 2.10 2.22 2.04 1.90 1.69 1.57 1.49 1.55 1.60 1.48 1.41 1.37 1.33 1.31 1.41 1.41 1.27 1.24
2.37 2.69 2.71 2.65 2.78 2.96 2.19 1.65 1.33 1.28 1.26 0.93 0.78 1.25 1.80 1.79 1.63 1.61 1.71 1.85 1.98 1.76 1.63 1.44 1.39 1.47 1.56 1.78 1.93 2.07 2.12 2.11 2.18 1.99 1.77 1.61 1.51 1.37 1.44 1.42 1.39 1.46 1.51 1.55 1.54 1.55 1.48 1.41 1.31
2.14 2.83 3.09 3.04 2.75 2.35 1.55 1.39 1.18 0.97 1.05 0.92 0.74 0.82 1.03 1.09 1.24 1.48 1.59 1.72 1.81 1.55 1.45 1.49 1.49 1.52 1.56 1.52 1.58 1.88 2.02 2.04 1.92 1.85 1.73 1.55 1.29 1.15 1.24 1.25 1.47 1.56 1.67 1.73 1.73 1.67 1.62 1.46 1.28
2.21 2.95 2.91 2.30 2.01 1.72 1.24 1.19 1.08 1.09 1.16 1.07 0.86 0.82 0.94 1.03 1.24 1.42 1.38 1.42 1.37 1.27 1.24 1.31 1.34 1.46 1.51 1.37 1.58 1.88 1.73 1.63 1.39 1.41 1.29 1.31 1.24 1.16 0.96 1.12 1.49 1.64 1.66 1.65 1.70 1.74 1.52 1.23 0.93
1.76 2.28 2.04 1.79 1.57 1.30 1.12 1.17 1.05 1.08 1.24 1.13 0.92 0.93 1.16 1.22 1.25 1.21 1.15 1.19 1.11 1.07 1.04 1.01 1.07 1.12 1.25 1.42 1.66 1.95 2.02 1.82 1.59 1.35 1.27 1.31 1.23 1.10 0.99 1.00 1.15 1.28 1.30 1.17 1.19 1.20 1.06 0.96 0.88
1.50 1.49 1.47 1.66 1.42 1.32 1.11 1.08 1.11 1.08 1.14 1.00 0.83 0.84 1.02 1.20 1.30 1.20 1.01 0.99 0.86 0.87 0.98 0.81 0.72 0.87 1.04 1.16 1.30 1.57 1.64 1.58 1.46 1.25 1.16 1.27 1.29 1.17 1.12 1.11 1.14 1.16 1.14 1.17 1.14 1.17 1.12 0.93 0.83
1.81 1.57 1.34 1.32 1.32 1.38 1.16 1.08 1.07 1.06 0.97 0.86 0.80 0.93 1.03 1.08 1.12 1.05 0.94 0.87 0.84 0.88 0.92 0.84 0.73 0.72 0.79 0.85 0.97 1.11 1.27 1.35 1.37 1.33 1.14 1.17 1.29 1.25 1.21 1.15 1.20 1.08 1.01 1.07 1.13 1.15 1.16 1.05 0.91
1.64 1.47 1.46 1.45 1.36 1.33 1.33 1.08 1.06 1.27 0.97 0.86 0.92 1.01 1.00 0.97 0.95 1.02 0.94 0.90 0.82 0.81 0.90 0.89 0.79 0.78 0.80 0.76 0.76 0.76 0.91 1.09 1.21 1.25 1.15 1.17 1.27 1.28 1.33 1.27 1.21 1.13 1.04 1.07 1.24 1.20 1.21 1.18 1.11
1.50 1.67 1.61 1.53 1.43 1.40 1.32 1.44 1.34 1.22 1.01 0.96 1.03 0.98 0.95 0.91 0.88 0.97 0.90 0.81 0.78 0.78 0.82 0.87 0.85 0.87 0.89 0.85 0.82 0.68 0.72 0.83 1.00 1.14 1.14 1.21 1.19 1.13 1.20 1.22 1.16 1.14 1.15 1.16 1.20 1.24 1.29 1.21 1.13
1.78 1.98 2.10 1.76 1.49 1.30 1.34 1.81 1.67 1.34 1.09 1.12 1.09 0.99 0.94 0.89 0.83 0.87 0.85 0.83 0.80 0.82 0.87 0.93 0.93 0.95 0.98 0.99 0.97 0.89 0.92 1.01 1.08 1.24 1.22 1.20 1.24 1.20 1.19 1.22 1.21 1.25 1.29 1.27 1.30 1.36 1.35 1.29 1.28
1.97 1.99 1.85 1.71 1.37 1.14 1.20 1.51 1.54 1.38 1.13 1.02 1.01 0.96 0.85 0.74 0.71 0.69 0.68 0.69 0.75 0.77 0.81 0.87 0.96 0.99 1.02 1.05 1.13 1.25 1.28 1.28 1.29 1.35 1.29 1.20 1.22 1.27 1.40 1.43 1.43 1.40 1.41 1.41 1.35 1.37 1.29 1.29 1.31
1.88 1.58 1.38 1.34 1.23 1.08 1.01 1.13 1.17 1.20 1.08 0.90 0.81 0.79 0.79 0.68 0.63 0.58 0.54 0.56 0.64 0.69 0.74 0.81 0.88 1.04 1.16 1.21 1.21 1.37 1.43 1.49 1.57 1.60 1.45 1.32 1.37 1.50 1.69 1.78 1.68 1.64 1.63 1.62 1.55 1.61 1.50 1.38 1.42
1.37 1.34 1.22 1.04 0.99 1.05 0.96 0.95 0.98 0.97 0.96 0.85 0.72 0.59 0.57 0.55 0.52 0.49 0.46 0.49 0.54 0.58 0.63 0.71 0.77 0.93 1.04 1.09 1.22 1.42 1.58 1.74 1.89 1.97 1.83 1.68 1.66 1.82 1.96 1.89 1.97 1.99 1.85 1.86 1.91 1.95 1.91 1.73 1.60
1.21 1.24 1.09 0.94 0.79 0.82 0.85 0.88 0.88 0.82 0.82 0.71 0.60 0.52 0.43 0.36 0.36 0.34 0.31 0.34 0.36 0.37 0.42 0.52 0.62 0.68 0.82 0.99 1.24 1.43 1.73 1.79 1.87 2.00 2.04 1.95 1.89 2.05 2.09 2.17 2.25 2.28 2.28 2.21 2.11 2.22 2.37 2.11 1.88
1.00 1.06 0.97 0.91 0.80 0.73 0.73 0.90 0.84 0.77 0.72 0.62 0.50 0.42 0.33 0.26 0.22 0.18 0.19 0.24 0.29 0.29 0.32 0.42 0.54 0.68 0.91 1.13 1.46 1.74 2.02 2.10 2.15 2.10 2.14 2.17 2.21 2.27 2.31 2.37 2.42 2.43 2.28 2.27 2.38 2.51 2.85 2.67 2.30
0.99 0.73 0.67 0.68 0.85 0.89 0.75 1.06 0.78 0.64 0.62 0.56 0.47 0.43 0.35 0.26 0.20 0.17 0.18 0.19 0.23 0.27 0.34 0.47 0.67 0.89 1.15 1.48 1.86 2.13 2.38 2.48 2.31 2.27 2.27 2.24 2.19 2.23 2.35 2.36 2.34 2.30 2.24 2.31 2.37 2.42 2.84 3.06 2.77
0.68 0.56 0.66 0.71 0.76 0.72 0.54 0.74 0.68 0.53 0.59 0.51 0.42 0.41 0.40 0.32 0.25 0.23 0.24 0.26 0.33 0.42 0.51 0.70 0.97 1.27 1.54 1.78 1.98 2.23 2.36 2.36 2.30 2.25 2.25 2.15 2.10 2.08 2.12 2.12 2.22 2.24 2.27 2.34 2.50 2.64 2.91 2.94 2.93
0.49 0.59 0.73 0.76 0.82 0.88 0.48 0.57 0.69 0.53 0.49 0.47 0.41 0.37 0.33 0.30 0.30 0.30 0.33 0.42 0.51 0.60 0.77 0.96 1.14 1.45 1.64 1.77 1.87 2.03 2.18 2.22 2.21 2.21 2.23 2.21 2.16 2.06 1.98 1.92 2.01 2.15 2.29 2.34 2.44 2.60 2.86 2.97 3.06
0.49 0.84 1.19 1.22 1.16 0.88 0.42 0.60 0.71 0.52 0.40 0.36 0.37 0.35 0.32 0.36 0.41 0.42 0.53 0.67 0.76 0.81 0.94 1.11 1.19 1.39 1.50 1.55 1.65 1.79 1.85 1.88 1.90 1.90 1.90 1.82 1.77 1.77 1.83 1.88 1.97 2.10 2.19 2.26 2.38 2.52 2.59 2.71 2.96
0.45 0.70 1.19 1.30 1.12 0.81 0.56 0.84 0.75 0.49 0.40 0.38 0.38 0.34 0.38 0.50 0.60 0.70 0.84 0.93 1.01 1.04 1.02 1.07 1.22 1.25 1.25 1.30 1.30 1.41 1.51 1.57 1.60 1.56 1.56 1.61 1.64 1.66 1.62 1.66 1.74 1.96 2.15 2.22 2.32 2.33 2.32 2.38 2.57
0.47 0.50 0.57 0.84 0.79 0.83 0.78 0.95 0.87 0.51 0.43 0.43 0.43 0.40 0.48 0.65 0.85 1.09 1.28 1.36 1.44 1.39 1.22 1.10 1.10 1.08 1.07 1.17 1.23 1.26 1.32 1.36 1.37 1.37 1.30 1.41 1.44 1.44 1.40 1.44 1.48 1.60 1.82 2.06 2.21 2.18 2.10 2.07 2.23
0.39 0.50 0.64 0.98 1.17 1.13 0.99 1.10 1.10 0.74 0.58 0.52 0.55 0.63 0.76 0.97 1.29 1.59 1.85 1.99 1.95 1.74 1.50 1.28 1.10 1.00 0.97 1.03 1.12 1.19 1.21 1.22 1.18 1.19 1.12 1.17 1.27 1.26 1.22 1.23 1.32 1.47 1.60 1.78 2.00 2.09 2.03 2.03 2.11
0.41 0.58 0.74 0.96 0.99 1.26 1.41 1.39 1.13 0.98 0.83 0.79 0.89 1.08 1.27 1.51 1.73 1.93 2.11 2.21 1.96 1.78 1.52 1.26 1.09 1.07 1.08 1.11 1.14 1.17 1.12 1.09 1.06 1.02 0.97 1.02 1.10 1.10 1.10 1.24 1.30 1.37 1.47 1.67 1.93 2.11 2.12 2.04 2.05
0.52 0.76 0.98 1.37 1.25 1.15 1.39 1.44 1.05 0.95 0.96 0.99 1.11 1.21 1.34 1.47 1.49 1.61 1.71 1.72 1.72 1.67 1.48 1.28 1.17 1.16 1.20 1.21 1.25 1.20 1.12 1.06 1.04 0.99 0.90 0.88 0.84 0.84 0.96 1.10 1.13 1.17 1.22 1.43 1.72 1.92 1.98 1.96 1.86